TAP67 LPPR-LPPR

Flight info

Callsign TAP67
Flight time 0h 45m
Altitude 1500
Route LPPR LPPR
Aircraft A20N/M-V/N

Departure

Time 2026-05-07 20:13
Airport Francisco de Sá Carneiro Airport (LPPR)

Arrival

Time 2026-05-07 20:58
Airport Francisco de Sá Carneiro Airport (LPPR)
Time Latitude Longitude Altitude Speed Heading
2026-05-07 19:53 41.23900 -8.67384 232 ft 0 kts 123°
2026-05-07 20:00 41.23901 -8.67386 232 ft 1 kts 124°
2026-05-07 20:01 41.23909 -8.67402 231 ft 2 kts 124°
2026-05-07 20:01 41.23917 -8.67418 230 ft 2 kts 124°
2026-05-07 20:01 41.23927 -8.67434 229 ft 2 kts 145°
2026-05-07 20:01 41.23940 -8.67443 229 ft 2 kts 166°
2026-05-07 20:02 41.23955 -8.67445 228 ft 2 kts 187°
2026-05-07 20:02 41.23969 -8.67440 229 ft 1 kts 208°
2026-05-07 20:02 41.23975 -8.67435 229 ft 1 kts 217°
2026-05-07 20:02 41.23977 -8.67433 229 ft 0 kts 214°
2026-05-07 20:06 41.23975 -8.67436 229 ft 2 kts 212°
2026-05-07 20:06 41.23938 -8.67499 225 ft 9 kts 260°
2026-05-07 20:06 41.23922 -8.67601 219 ft 10 kts 259°
2026-05-07 20:07 41.23912 -8.67670 217 ft 0 kts 258°
2026-05-07 20:07 41.23911 -8.67674 217 ft 0 kts 258°
2026-05-07 20:07 41.23907 -8.67698 217 ft 5 kts 259°
2026-05-07 20:07 41.23902 -8.67732 216 ft 0 kts 259°
2026-05-07 20:08 41.23901 -8.67738 216 ft 0 kts 258°
2026-05-07 20:11 41.23897 -8.67767 215 ft 12 kts 259°
2026-05-07 20:11 41.23897 -8.67879 211 ft 9 kts 300°
2026-05-07 20:12 41.23939 -8.67899 211 ft 0 kts 348°
2026-05-07 20:12 41.24080 -8.67938 208 ft 65 kts 348°
2026-05-07 20:12 41.24829 -8.68138 205 ft 149 kts 348°
2026-05-07 20:13 41.25894 -8.68413 914 ft 163 kts 350°
2026-05-07 20:13 41.27007 -8.68595 1803 ft 167 kts 352°
2026-05-07 20:13 41.28313 -8.68759 2073 ft 205 kts 354°
2026-05-07 20:13 41.29814 -8.68963 2142 ft 221 kts 343°
2026-05-07 20:14 41.31062 -8.70074 1967 ft 220 kts 302°
2026-05-07 20:14 41.31365 -8.72022 1668 ft 219 kts 256°
2026-05-07 20:14 41.30576 -8.73636 1553 ft 211 kts 213°
2026-05-07 20:14 41.29208 -8.74137 1713 ft 205 kts 175°
2026-05-07 20:15 41.27798 -8.73851 1731 ft 209 kts 169°
2026-05-07 20:15 41.26350 -8.73530 1732 ft 210 kts 169°
2026-05-07 20:15 41.24910 -8.73216 1769 ft 210 kts 171°
2026-05-07 20:15 41.23471 -8.72898 1803 ft 210 kts 170°
2026-05-07 20:16 41.22014 -8.72564 1841 ft 210 kts 170°
2026-05-07 20:16 41.20558 -8.72218 1883 ft 210 kts 169°
2026-05-07 20:16 41.19129 -8.71861 1928 ft 210 kts 169°
2026-05-07 20:16 41.17757 -8.71215 1953 ft 209 kts 141°
2026-05-07 20:17 41.16959 -8.69684 2009 ft 200 kts 100°
2026-05-07 20:17 41.17082 -8.67980 1999 ft 176 kts 61°
2026-05-07 20:17 41.17966 -8.67121 1780 ft 157 kts 10°
2026-05-07 20:17 41.19038 -8.66897 1455 ft 153 kts
2026-05-07 20:18 41.20060 -8.66946 1119 ft 148 kts 353°
2026-05-07 20:18 41.21066 -8.67156 742 ft 145 kts 347°
2026-05-07 20:18 41.22012 -8.67405 505 ft 134 kts 346°
2026-05-07 20:18 41.22916 -8.67632 366 ft 133 kts 346°
2026-05-07 20:19 41.23835 -8.67886 326 ft 141 kts 343°
2026-05-07 20:19 41.24826 -8.68159 989 ft 150 kts 345°
2026-05-07 20:19 41.25871 -8.68491 1666 ft 165 kts 343°
2026-05-07 20:19 41.27033 -8.68920 1917 ft 179 kts 341°
2026-05-07 20:20 41.28218 -8.69474 2022 ft 180 kts 322°
2026-05-07 20:20 41.28809 -8.70865 1900 ft 180 kts 268°
2026-05-07 20:20 41.28208 -8.72244 1769 ft 181 kts 207°
2026-05-07 20:20 41.26969 -8.72339 1786 ft 186 kts 167°
2026-05-07 20:21 41.25696 -8.71963 1790 ft 188 kts 166°
2026-05-07 20:21 41.24410 -8.71556 1808 ft 188 kts 165°
2026-05-07 20:21 41.23131 -8.71135 1829 ft 188 kts 166°
2026-05-07 20:21 41.21843 -8.70713 1872 ft 189 kts 165°
2026-05-07 20:22 41.20568 -8.70256 1915 ft 188 kts 165°
2026-05-07 20:22 41.19321 -8.69846 1800 ft 181 kts 167°
2026-05-07 20:22 41.18122 -8.69436 1564 ft 178 kts 150°
2026-05-07 20:22 41.17456 -8.68199 1220 ft 167 kts 87°
2026-05-07 20:23 41.18028 -8.67053 892 ft 148 kts 11°
2026-05-07 20:23 41.18966 -8.66880 970 ft 133 kts
2026-05-07 20:23 41.19890 -8.66895 919 ft 132 kts 349°
2026-05-07 20:23 41.20802 -8.67048 757 ft 131 kts 345°
2026-05-07 20:24 41.21715 -8.67328 606 ft 135 kts 348°
2026-05-07 20:24 41.22634 -8.67564 418 ft 135 kts 346°
2026-05-07 20:24 41.23555 -8.67805 245 ft 134 kts 348°
2026-05-07 20:24 41.24432 -8.68038 201 ft 117 kts 352°
2026-05-07 20:25 41.25287 -8.68251 287 ft 145 kts 345°
2026-05-07 20:25 41.26384 -8.68537 853 ft 169 kts 347°
2026-05-07 20:25 41.27576 -8.68855 1673 ft 181 kts 347°
2026-05-07 20:25 41.28817 -8.69236 2281 ft 192 kts 345°
2026-05-07 20:26 41.30116 -8.69743 2380 ft 193 kts 335°
2026-05-07 20:26 41.31029 -8.70995 2324 ft 193 kts 290°
2026-05-07 20:26 41.30962 -8.72731 2113 ft 200 kts 243°
2026-05-07 20:26 41.29848 -8.73805 1990 ft 206 kts 189°
2026-05-07 20:27 41.28431 -8.73637 2026 ft 209 kts 168°
2026-05-07 20:27 41.27000 -8.73202 2038 ft 209 kts 166°
2026-05-07 20:27 41.25588 -8.72738 2064 ft 210 kts 165°
2026-05-07 20:27 41.24346 -8.72307 2053 ft 210 kts 165°
2026-05-07 20:28 41.22948 -8.71797 1988 ft 210 kts 164°
2026-05-07 20:28 41.21529 -8.71290 2028 ft 209 kts 166°
2026-05-07 20:28 41.20099 -8.70837 2061 ft 210 kts 166°
2026-05-07 20:28 41.18698 -8.70363 2080 ft 210 kts 165°
2026-05-07 20:29 41.17323 -8.69715 2063 ft 210 kts 141°
2026-05-07 20:29 41.16620 -8.68132 1942 ft 194 kts 93°
2026-05-07 20:29 41.17068 -8.66661 1731 ft 169 kts 34°
2026-05-07 20:29 41.18126 -8.66462 1436 ft 152 kts 348°
2026-05-07 20:30 41.19119 -8.66685 1191 ft 142 kts 348°
2026-05-07 20:30 41.20098 -8.66914 934 ft 142 kts 346°
2026-05-07 20:30 41.21069 -8.67171 764 ft 143 kts 348°
2026-05-07 20:30 41.22039 -8.67423 519 ft 141 kts 346°
2026-05-07 20:31 41.23016 -8.67658 337 ft 142 kts 346°
2026-05-07 20:31 41.23970 -8.67915 211 ft 134 kts 350°
2026-05-07 20:31 41.24940 -8.68145 427 ft 148 kts 350°
2026-05-07 20:31 41.26000 -8.68405 897 ft 163 kts 346°
2026-05-07 20:32 41.27139 -8.68793 1526 ft 175 kts 343°
2026-05-07 20:32 41.28388 -8.69303 1772 ft 194 kts 342°
2026-05-07 20:32 41.29687 -8.69952 1908 ft 202 kts 322°
2026-05-07 20:32 41.30405 -8.71488 1790 ft 199 kts 274°
2026-05-07 20:33 41.30020 -8.73191 1736 ft 200 kts 225°
2026-05-07 20:33 41.28787 -8.73970 1763 ft 202 kts 180°
2026-05-07 20:33 41.27349 -8.73778 1567 ft 207 kts 170°
2026-05-07 20:33 41.25937 -8.73412 1646 ft 209 kts 167°
2026-05-07 20:34 41.24505 -8.72992 1533 ft 209 kts 166°
2026-05-07 20:34 41.23103 -8.72508 1418 ft 208 kts 164°
2026-05-07 20:34 41.21709 -8.72018 1518 ft 208 kts 166°
2026-05-07 20:34 41.20279 -8.71564 1505 ft 208 kts 166°
2026-05-07 20:35 41.18857 -8.71154 1527 ft 209 kts 168°
2026-05-07 20:35 41.17491 -8.70757 1504 ft 195 kts 151°
2026-05-07 20:35 41.16584 -8.69586 1486 ft 176 kts 109°
2026-05-07 20:35 41.16511 -8.68088 1439 ft 158 kts 65°
2026-05-07 20:36 41.17201 -8.67047 1480 ft 145 kts 24°
2026-05-07 20:36 41.18169 -8.66850 1371 ft 141 kts
2026-05-07 20:36 41.19159 -8.66812 1238 ft 143 kts 355°
2026-05-07 20:36 41.20135 -8.66958 965 ft 141 kts 352°
2026-05-07 20:37 41.21115 -8.67170 742 ft 143 kts 348°
2026-05-07 20:37 41.22076 -8.67429 514 ft 141 kts 347°
2026-05-07 20:37 41.23049 -8.67670 344 ft 141 kts 348°
2026-05-07 20:37 41.23994 -8.67913 212 ft 130 kts 348°
2026-05-07 20:38 41.24894 -8.68153 243 ft 145 kts 343°
2026-05-07 20:38 41.25708 -8.68902 712 ft 150 kts 289°
2026-05-07 20:38 41.25643 -8.70209 1347 ft 150 kts 227°
2026-05-07 20:38 41.24712 -8.70918 1629 ft 173 kts 192°
2026-05-07 20:39 41.23476 -8.71143 1549 ft 175 kts 180°
2026-05-07 20:39 41.22301 -8.71183 1518 ft 162 kts 178°
2026-05-07 20:39 41.21189 -8.71062 1370 ft 161 kts 170°
2026-05-07 20:39 41.20069 -8.70841 1123 ft 159 kts 170°
2026-05-07 20:40 41.18970 -8.70642 1050 ft 159 kts 173°
2026-05-07 20:40 41.17863 -8.70461 1137 ft 160 kts 173°
2026-05-07 20:40 41.16771 -8.70227 1206 ft 160 kts 166°
2026-05-07 20:40 41.15695 -8.69811 1224 ft 160 kts 154°
2026-05-07 20:41 41.14712 -8.69135 1258 ft 157 kts 149°
2026-05-07 20:41 41.13899 -8.68257 1360 ft 148 kts 111°
2026-05-07 20:41 41.14036 -8.67024 1188 ft 139 kts 45°
2026-05-07 20:41 41.14834 -8.66289 1129 ft 141 kts 16°
2026-05-07 20:42 41.15794 -8.66168 1179 ft 142 kts 358°
2026-05-07 20:42 41.16800 -8.66243 1294 ft 143 kts 351°
2026-05-07 20:42 41.17783 -8.66411 1312 ft 143 kts 349°
2026-05-07 20:42 41.18770 -8.66613 1184 ft 143 kts 349°
2026-05-07 20:43 41.19744 -8.66845 1044 ft 143 kts 347°
2026-05-07 20:43 41.20721 -8.67108 833 ft 146 kts 348°
2026-05-07 20:43 41.21764 -8.67389 660 ft 157 kts 349°
2026-05-07 20:43 41.22834 -8.67664 470 ft 156 kts 348°
2026-05-07 20:44 41.23942 -8.67941 716 ft 170 kts 349°
2026-05-07 20:44 41.25104 -8.68228 1532 ft 173 kts 349°
2026-05-07 20:44 41.26313 -8.68528 1732 ft 184 kts 348°
2026-05-07 20:44 41.27615 -8.68864 1815 ft 191 kts 349°
2026-05-07 20:45 41.28888 -8.69183 1943 ft 180 kts 349°
2026-05-07 20:45 41.30055 -8.69465 2121 ft 162 kts 349°
2026-05-07 20:45 41.31159 -8.69789 2191 ft 163 kts 344°
2026-05-07 20:45 41.32244 -8.70206 2169 ft 162 kts 341°
2026-05-07 20:46 41.33121 -8.71034 2148 ft 160 kts 292°
2026-05-07 20:46 41.33118 -8.72468 2018 ft 159 kts 245°
2026-05-07 20:46 41.32423 -8.73576 2055 ft 153 kts 213°
2026-05-07 20:46 41.31432 -8.73984 1985 ft 150 kts 182°
2026-05-07 20:47 41.30381 -8.73936 1944 ft 151 kts 175°
2026-05-07 20:47 41.29342 -8.73794 2000 ft 151 kts 173°
2026-05-07 20:47 41.28294 -8.73617 2033 ft 151 kts 172°
2026-05-07 20:47 41.27243 -8.73406 2069 ft 151 kts 171°
2026-05-07 20:48 41.26204 -8.73162 2104 ft 151 kts 170°
2026-05-07 20:48 41.25166 -8.72929 2137 ft 151 kts 171°
2026-05-07 20:48 41.24121 -8.72738 2170 ft 152 kts 173°
2026-05-07 20:48 41.23063 -8.72543 2193 ft 151 kts 172°
2026-05-07 20:49 41.21994 -8.72388 2149 ft 164 kts 173°
2026-05-07 20:49 41.20703 -8.72201 2213 ft 204 kts 173°
2026-05-07 20:49 41.19125 -8.71929 2197 ft 249 kts 171°
2026-05-07 20:49 41.17279 -8.71552 2323 ft 285 kts 171°
2026-05-07 20:50 41.15340 -8.71116 2622 ft 276 kts 169°
2026-05-07 20:50 41.13459 -8.70641 2738 ft 280 kts 167°
2026-05-07 20:50 41.11538 -8.70045 2890 ft 279 kts 162°
2026-05-07 20:50 41.09985 -8.68750 2835 ft 264 kts 126°
2026-05-07 20:51 41.09353 -8.66528 2570 ft 257 kts 89°
2026-05-07 20:51 41.09917 -8.64383 2238 ft 251 kts 41°
2026-05-07 20:51 41.11483 -8.63703 2031 ft 239 kts 351°
2026-05-07 20:51 41.13038 -8.64353 1877 ft 232 kts 335°
2026-05-07 20:52 41.14467 -8.65330 1743 ft 236 kts 333°
2026-05-07 20:52 41.16056 -8.66086 1711 ft 242 kts 348°
2026-05-07 20:52 41.17710 -8.66440 1551 ft 243 kts 352°
2026-05-07 20:52 41.19393 -8.66818 1256 ft 243 kts 349°
2026-05-07 20:53 41.21046 -8.67219 887 ft 244 kts 349°
2026-05-07 20:53 41.22728 -8.67624 518 ft 245 kts 349°
2026-05-07 20:53 41.24362 -8.68028 594 ft 228 kts 349°
2026-05-07 20:53 41.25927 -8.68385 1571 ft 220 kts 350°
2026-05-07 20:54 41.27394 -8.68740 1747 ft 214 kts 343°
2026-05-07 20:54 41.28620 -8.69795 1775 ft 215 kts 305°
2026-05-07 20:54 41.29088 -8.71667 1803 ft 215 kts 266°
2026-05-07 20:54 41.28568 -8.73431 1783 ft 206 kts 225°
2026-05-07 20:55 41.27335 -8.74251 1689 ft 199 kts 180°
2026-05-07 20:55 41.25996 -8.73978 1617 ft 185 kts 167°
2026-05-07 20:55 41.24802 -8.73567 1573 ft 171 kts 163°
2026-05-07 20:55 41.23691 -8.73129 1565 ft 166 kts 160°
2026-05-07 20:56 41.22572 -8.72638 1593 ft 165 kts 156°
2026-05-07 20:56 41.21512 -8.72139 1400 ft 156 kts 154°
2026-05-07 20:56 41.20550 -8.71546 1135 ft 147 kts 149°
2026-05-07 20:56 41.19703 -8.70781 814 ft 149 kts 114°
2026-05-07 20:57 41.19658 -8.69525 581 ft 148 kts 60°
2026-05-07 20:57 41.20366 -8.68533 762 ft 143 kts 37°
2026-05-07 20:57 41.21120 -8.67762 598 ft 140 kts 25°
2026-05-07 20:57 41.22051 -8.67484 528 ft 137 kts 354°
2026-05-07 20:58 41.23048 -8.67679 381 ft 146 kts 347°
2026-05-07 20:58 41.24023 -8.67928 219 ft 137 kts 347°
2026-05-07 20:58 41.24720 -8.68104 193 ft 31 kts 349°
2026-05-07 20:58 41.24746 -8.68113 192 ft 1 kts 336°
2026-05-07 20:59 41.24761 -8.68154 191 ft 7 kts 268°
2026-05-07 20:59 41.24730 -8.68209 191 ft 8 kts 200°
2026-05-07 20:59 41.24676 -8.68232 192 ft 8 kts 197°
2026-05-07 20:59 41.24617 -8.68257 193 ft 8 kts 198°
2026-05-07 21:00 41.24555 -8.68282 193 ft 10 kts 191°
2026-05-07 21:00 41.24484 -8.68281 194 ft 10 kts 167°
2026-05-07 21:00 41.24424 -8.68266 196 ft 8 kts 172°
2026-05-07 21:00 41.24360 -8.68251 198 ft 11 kts 167°
2026-05-07 21:01 41.24287 -8.68232 200 ft 10 kts 168°
2026-05-07 21:01 41.24221 -8.68215 202 ft 9 kts 168°
2026-05-07 21:01 41.24159 -8.68199 203 ft 9 kts 168°
2026-05-07 21:01 41.24088 -8.68181 204 ft 11 kts 168°
2026-05-07 21:02 41.24009 -8.68159 205 ft 11 kts 168°
2026-05-07 21:02 41.23932 -8.68140 207 ft 11 kts 169°
2026-05-07 21:02 41.23858 -8.68121 208 ft 10 kts 169°
2026-05-07 21:02 41.23788 -8.68103 210 ft 10 kts 168°
2026-05-07 21:03 41.23719 -8.68086 211 ft 9 kts 169°
2026-05-07 21:03 41.23653 -8.68068 212 ft 9 kts 168°
2026-05-07 21:03 41.23589 -8.68050 213 ft 9 kts 168°
2026-05-07 21:03 41.23526 -8.68034 214 ft 9 kts 169°
2026-05-07 21:04 41.23461 -8.68016 215 ft 9 kts 165°
2026-05-07 21:04 41.23403 -8.67974 216 ft 8 kts 139°
2026-05-07 21:04 41.23369 -8.67921 217 ft 4 kts 127°
2026-05-07 21:04 41.23366 -8.67916 217 ft 0 kts 127°
2026-05-07 21:06 41.23365 -8.67915 217 ft 0 kts 127°
2026-05-07 21:06 41.23365 -8.67914 217 ft 0 kts 127°
2026-05-07 21:07 41.23364 -8.67913 217 ft 0 kts 127°
2026-05-07 21:07 41.23363 -8.67911 217 ft 0 kts 127°
2026-05-07 21:07 41.23362 -8.67910 217 ft 0 kts 127°
2026-05-07 21:08 41.23362 -8.67909 217 ft 0 kts 127°
2026-05-07 21:08 41.23361 -8.67909 217 ft 0 kts 127°
2026-05-07 21:08 41.23361 -8.67908 217 ft 0 kts 127°
2026-05-07 21:09 41.23352 -8.67891 217 ft 11 kts 126°
2026-05-07 21:09 41.23306 -8.67799 220 ft 9 kts 118°
2026-05-07 21:09 41.23307 -8.67745 222 ft 4 kts 36°
2026-05-07 21:09 41.23336 -8.67742 222 ft 0 kts 348°
2026-05-07 21:10 41.23339 -8.67743 222 ft 6 kts 348°
2026-05-07 21:10 41.23657 -8.67825 216 ft 84 kts 348°
2026-05-07 21:10 41.24469 -8.68041 199 ft 149 kts 348°
2026-05-07 21:10 41.25099 -8.68173 180 ft 15 kts 11°
2026-05-07 21:11 41.25200 -8.68140 178 ft 14 kts 17°
2026-05-07 21:11 41.25283 -8.68102 176 ft 4 kts 22°
2026-05-07 21:11 41.25293 -8.68053 178 ft 2 kts 96°
2026-05-07 21:12 41.25267 -8.68015 180 ft 10 kts 156°
2026-05-07 21:12 41.25198 -8.67996 182 ft 9 kts 170°
2026-05-07 21:12 41.25137 -8.67980 184 ft 11 kts 168°
2026-05-07 21:12 41.25027 -8.67949 190 ft 30 kts 168°
2026-05-07 21:13 41.24972 -8.67936 191 ft 0 kts 170°
2026-05-07 21:21 41.24373 -8.67729 211 ft 0 kts 170°
2026-05-07 21:23 41.24209 -8.67642 217 ft 0 kts 261°
2026-05-07 21:23 41.24202 -8.67645 216 ft 0 kts 261°